Regional Weather Roundup
Issued by NWS

Home | Current Version | Previous Version | Text Only | Print | Product List | Glossary On
Versions: 1 2 3 4 5 6 7 8 9 10 11 12 13 14 15 16 17 18 19 20 21 22 23 24 25 26 27 28 29 30 31 32 33 34 35 36 37 38 39 40 41 42 43 44 45 46 47 48 49 50
000
ASUS44 KMEG 251600
RWRTN
TENNESSEE HOURLY STATE WEATHER ROUNDUP
NATIONAL WEATHER SERVICE MEMPHIS TN
1100 AM CDT SAT OCT 25 2014

TNZ002-004-019-021-049-052-054-088>092-251700-
WEST TENNESSEE

CITY           SKY/WX    TMP DP  RH WIND       PRES   REMARKS
MEMPHIS INTL   SUNNY     73  60  63 W6        30.11S
NWS MEMPHIS      N/A     71 N/A N/A MISG        N/A
JACKSON        MOSUNNY   72  59  63 W7        30.09S
DYERSBURG      SUNNY     72  54  53 W7        30.09F
UNION CITY     SUNNY     68  59  73 W3        30.06F
PARIS          SUNNY     66  57  72 W7        30.08S
LEXINGTON      SUNNY     66  57  72 W6        30.08S
SAVANNAH       SUNNY     70  63  78 VRB5      30.10F
$$

TNZ008-025-027-028-033-062-065-066-251700-
NORTH MIDDLE TENNESSEE

CITY           SKY/WX    TMP DP  RH WIND       PRES   REMARKS
NASHVILLE      PTSUNNY   67  54  63 S5        30.09S
CLARKSVILLE    SUNNY     69  57  65 W7        30.06F
COOKEVILLE     SUNNY     63  52  67 SW5       30.10F
CROSSVILLE     SUNNY     64  48  56 W7        30.11S
$$

TNZ061-075-076-078-094-096-097-251700-
SOUTH MIDDLE TENNESSEE

CITY           SKY/WX    TMP DP  RH WIND       PRES   REMARKS
TULLAHOMA      SUNNY     66  52  59 CALM      30.11F
WINCHESTER     SUNNY     64  52  63 VRB3      30.12S
MCMINNVILLE    SUNNY     64  54  68 CALM      30.11S
SHELBYVILLE    SUNNY     66  55  68 S3        30.11F
$$

TNZ017-018-042-046-047-251700-
NORTHEAST TENNESSEE

CITY           SKY/WX    TMP DP  RH WIND       PRES   REMARKS
TRI CITIES     SUNNY     57  45  64 CALM      30.11F
ELIZABETHTON   SUNNY     59  43  55 W7        30.10S
$$

TNZ012-013-036-069-073-074-251700-
CENTRAL EAST TENNESSEE

CITY           SKY/WX    TMP DP  RH WIND       PRES   REMARKS
KNOXVILLE      SUNNY     60  45  57 CALM      30.09F
OAK RIDGE      SUNNY     61  48  62 CALM      30.11F
GATLINBURG     SUNNY     59  43  55 VRB3      30.09F
MORRISTOWN     SUNNY     63  46  55 VRB5      30.11S
$$

TNZ083-085-099-251700-
SOUTHEAST TENNESSEE

CITY           SKY/WX    TMP DP  RH WIND       PRES   REMARKS
CHATTANOOGA    SUNNY     66  49  54 CALM      30.11F
$$

SKY/WX REPORTED AS FAIR MEANS FEW OR NO CLOUDS BELOW
12 THOUSAND FEET.




USA.gov is the U.S. government's official web portal to all federal, state and local government web resources and services.